Tracking 19794 objects as of 22-Jul-2019
HD Live streaming from Space Station
objects crossing your sky now

COSMOS 1275 DEB

Track COSMOS 1275 DEB now!
10-day predictions


NORAD ID: 42130
Int'l Code: 1981-053QS
Perigee: 856.6 km
Apogee: 891.2 km
Inclination: 82.9 °
Period: 102.3 minutes
Semi major axis: 7244 km
RCS: Unknown
Launch date: June 4, 1981
Source: Commonwealth of Independent States (former USSR) (CIS)
Launch site: PLESETSK MISSILE AND SPACE COMPLEX (PKMTR)

Note: This is SATELLITE DEBRIS
aabbcc
Your satellite tracking list
Your tracking list is empty




NASA's NSSDC Master Catalog

Two Line Element Set (TLE):
1 42130U 81053QS  19202.55487820 +.00000386 +00000-0 +21749-3 0  9993
2 42130 082.8642 299.9069 0023874 178.1957 181.9308 14.07856171290458
Source of the keplerian elements: AFSPC